Theta_e
284 284 283 283 284 285 285 285 285 285 286 286 286 287 287 287 287 287 288 287 287 287 287 287 287 287 287 288 289 289 290 290 290 291 291 291 291 292 292 292 292 292 293 293 293 293 293 293 293 294 294 294 294 294 294 295 295 295 295 296 296 296 297 297 298 298 298 299 299 299 299 299 299 299 299 299 298 298 299 299 299 299 299 300 300 300
284 284 284 283 284 285 285 285 285 285 285 286 286 286 286 286 286 286 287 287 287 287 287 287 287 287 287 288 289 289 289 289 290 290 290 291 291 291 292 292 292 292 292 292 293 293 293 293 293 293 293 294 294 294 294 294 294 295 295 295 296 296 296 297 297 297 297 298 298 298 298 298 298 297 297 297 297 298 298 298 299 299 299 299 299 300
284 284 284 284 284 285 285 285 286 286 286 286 286 286 286 285 285 285 285 286 286 287 287 287 287 287 287 287 288 288 289 289 289 290 290 290 291 291 291 291 291 292 292 292 292 292 292 293 293 293 293 293 294 294 294 294 294 294 294 295 295 295 296 296 296 296 296 296 297 297 297 296 296 296 296 297 297 297 298 298 298 298 298 299 299 299
283 284 284 285 285 285 285 285 286 286 286 286 286 286 285 285 285 285 285 286 286 286 287 287 287 286 286 286 287 287 288 288 289 289 290 290 290 290 291 291 291 291 291 292 292 292 292 292 293 293 293 293 293 294 294 294 294 294 294 294 294 295 295 295 295 295 295 295 295 295 295 295 295 296 296 296 297 297 297 297 297 298 298 298 299 299
283 284 284 285 285 285 285 286 286 286 286 286 285 285 285 285 285 285 285 286 286 286 286 286 286 286 285 285 285 287 288 288 289 289 289 289 290 290 290 290 290 291 291 291 292 292 292 292 292 293 293 293 293 293 293 293 293 294 294 294 294 294 294 294 294 294 294 294 294 294 294 295 295 295 295 296 296 296 297 297 297 297 297 298 298 299
283 284 285 284 285 285 285 285 285 285 285 285 285 285 285 285 285 285 285 285 286 286 286 285 285 285 284 284 285 286 287 288 288 288 289 289 289 289 290 290 290 290 291 291 291 292 292 292 292 292 293 293 293 293 293 293 293 293 293 293 293 293 293 293 293 293 293 293 294 294 294 294 294 294 295 295 295 296 296 296 297 297 297 297 298 298
283 284 284 284 284 285 285 285 285 285 284 284 284 284 285 285 285 285 285 285 285 285 284 284 284 284 284 285 285 286 286 287 287 287 288 288 288 289 289 289 290 290 290 291 291 291 292 292 292 292 292 292 292 292 292 292 292 292 292 292 292 292 292 292 292 293 293 293 293 293 293 293 294 294 294 294 295 295 295 296 296 296 297 297 298 298
282 283 283 284 284 284 285 284 285 285 284 284 283 283 284 284 285 285 285 285 284 283 283 283 283 284 284 285 285 285 285 285 286 286 287 287 288 288 289 289 290 290 290 291 291 291 291 291 292 292 292 292 292 292 292 292 292 292 292 291 291 292 292 292 292 292 292 292 292 292 293 293 293 293 294 294 294 294 295 295 295 296 297 297 297 298
281 282 283 283 283 283 283 284 284 285 285 284 283 283 283 283 284 284 284 284 283 283 283 282 282 283 284 284 285 285 285 285 285 286 286 286 287 288 288 289 289 290 290 290 290 291 291 291 291 291 291 291 291 291 291 291 291 291 291 291 291 291 291 291 291 291 291 291 292 292 292 292 292 293 293 293 293 294 294 294 295 296 296 297 297 298
281 281 282 283 283 283 283 283 284 285 285 285 284 284 283 282 282 282 281 282 282 283 283 282 282 282 283 284 284 285 285 286 286 287 287 287 287 288 288 288 289 289 290 290 290 290 290 290 290 291 290 290 290 290 290 290 290 290 290 290 290 290 290 290 290 291 291 291 291 292 292 292 292 292 293 293 293 294 294 294 294 295 296 297 297 298
282 282 282 283 283 283 283 283 284 284 285 285 284 283 282 282 281 280 280 280 281 282 282 282 282 282 282 283 284 284 285 285 286 286 287 287 287 288 288 288 288 288 289 289 289 289 289 289 290 289 289 289 289 289 289 289 289 289 289 289 289 289 290 290 290 290 291 291 291 292 292 292 292 293 293 293 293 294 294 294 294 295 295 296 297 297
282 282 282 282 283 283 283 283 284 284 284 283 282 281 281 282 282 281 280 279 280 280 281 282 282 283 283 283 283 284 284 284 284 285 286 286 286 287 287 287 287 287 288 288 288 288 288 288 288 289 289 288 288 288 288 288 288 288 288 289 289 289 289 290 290 290 291 291 291 292 292 292 293 293 293 293 294 294 294 294 294 294 295 295 296 296
282 282 282 282 282 282 282 283 283 283 283 282 281 280 280 282 282 282 281 280 280 280 281 281 282 283 283 284 284 284 284 284 284 285 285 285 285 286 286 285 286 286 286 286 286 286 287 287 288 288 288 287 288 288 288 288 288 288 288 288 289 289 289 290 290 290 291 291 291 292 292 292 292 293 293 293 293 293 294 294 294 294 294 295 295 295
282 282 282 282 282 282 282 282 282 282 281 281 281 281 281 281 282 281 280 280 280 281 281 281 281 282 283 284 285 285 284 284 284 284 284 285 285 286 285 285 285 285 285 285 285 285 286 286 286 286 287 287 287 287 287 287 287 288 288 288 289 289 289 290 290 290 291 291 291 292 292 292 292 293 293 293 293 293 293 293 294 294 294 294 295 295
282 281 281 281 281 282 282 282 282 282 281 281 282 282 282 281 281 281 280 280 280 281 281 281 281 282 283 284 285 286 285 284 284 283 283 284 285 286 286 284 284 284 284 284 284 284 286 286 285 285 285 285 286 286 286 287 287 288 288 289 289 289 290 290 290 290 290 291 291 291 292 292 292 292 293 293 293 293 293 294 294 294 294 294 294 294
282 282 281 281 281 282 282 282 282 281 281 282 282 281 281 280 280 280 280 280 280 280 281 280 280 281 282 284 286 286 285 284 283 283 282 283 284 285 285 284 283 283 283 283 283 284 285 285 284 285 285 285 286 286 287 287 288 288 288 289 289 289 290 290 290 290 290 291 291 291 291 292 292 292 292 292 293 293 293 293 293 293 294 294 294 294
283 282 282 282 282 282 282 282 282 281 281 281 281 281 281 280 281 280 280 280 280 280 280 279 279 279 280 282 284 286 286 284 283 282 282 282 283 284 285 284 283 282 282 283 283 283 284 284 284 284 284 285 286 286 287 287 288 288 288 289 289 289 289 290 290 290 290 290 291 291 291 291 292 292 292 292 292 292 293 293 293 293 293 294 294 294
283 283 282 281 281 281 282 282 282 282 282 281 281 281 281 281 281 281 281 281 280 280 280 280 279 279 279 280 282 285 286 284 283 282 281 281 282 283 285 284 283 282 282 282 283 283 284 284 284 284 284 286 286 287 287 287 288 288 288 288 289 289 289 289 290 290 290 290 290 291 291 291 291 291 292 292 292 292 292 292 293 293 293 293 293 294
283 282 282 281 281 281 281 281 281 281 281 281 281 281 281 281 281 281 281 281 280 280 280 280 280 280 279 280 282 284 286 284 282 281 280 279 281 282 284 283 282 282 282 282 283 283 284 284 284 285 286 286 286 287 287 287 288 288 288 288 289 289 289 289 290 290 290 290 290 290 291 291 291 291 291 291 292 292 292 292 292 293 293 293 293 293
282 282 282 282 281 281 281 281 281 282 282 282 282 281 281 281 281 281 281 281 281 281 281 280 280 280 280 281 282 284 285 284 282 280 279 279 280 281 283 282 282 281 281 281 282 283 283 284 284 285 285 286 286 287 287 287 288 288 288 288 289 289 289 289 289 290 290 290 290 290 290 290 291 291 291 291 291 291 292 292 292 292 292 293 293 293
282 282 283 283 282 281 281 281 282 283 283 283 283 282 281 281 281 281 281 281 281 281 281 281 280 280 281 281 282 283 284 283 281 279 278 278 279 280 282 282 281 281 280 281 282 283 283 284 284 284 285 286 286 287 287 287 288 288 288 288 288 289 289 289 289 289 289 290 290 290 290 290 290 290 291 291 291 291 291 292 292 292 292 292 292 293
282 282 283 283 283 282 282 282 283 284 284 283 282 281 281 281 280 281 281 281 281 281 281 280 281 281 281 281 282 283 284 283 281 279 278 277 278 279 281 282 281 280 280 281 282 283 284 284 284 284 285 286 286 287 287 287 287 288 288 288 288 288 288 289 289 289 289 289 289 289 290 290 290 290 290 290 290 291 291 291 291 292 292 292 292 292
283 283 284 284 284 284 283 284 284 284 285 284 283 282 282 282 282 282 282 282 282 281 281 281 281 282 282 282 282 283 283 283 282 280 278 276 277 279 281 281 281 280 280 281 282 283 283 283 283 284 285 286 286 287 287 287 287 288 288 288 288 288 288 288 288 289 289 289 289 289 289 289 290 290 290 290 290 290 290 291 291 291 291 291 291 291
284 284 284 284 284 284 284 284 284 284 284 284 284 284 285 284 284 284 284 283 283 282 281 281 281 281 281 281 281 282 282 283 282 280 278 277 277 279 281 281 280 280 280 281 282 283 283 283 283 284 284 285 286 286 287 287 287 287 287 288 288 288 288 288 288 288 289 289 289 289 289 289 289 289 289 290 289 289 290 290 290 290 290 290 291 291
284 284 284 284 285 286 286 286 286 286 286 286 286 285 285 285 285 284 284 283 282 281 281 280 279 278 279 280 280 280 281 282 282 280 278 277 278 279 280 281 280 280 280 281 282 282 282 282 283 283 284 285 285 286 286 287 287 287 287 287 287 287 288 288 288 288 288 288 289 289 289 289 289 289 289 289 289 289 289 289 290 290 290 290 290 291
286 286 286 286 287 287 287 288 288 288 287 286 285 284 284 284 283 283 282 282 281 280 279 278 277 277 278 278 278 279 280 282 281 280 279 278 278 278 280 281 280 280 280 280 281 282 282 282 282 283 283 284 285 286 286 286 286 286 287 287 287 287 287 287 288 288 288 288 288 288 288 288 288 289 289 289 289 289 289 289 289 289 290 290 290 290
286 286 286 286 286 286 286 286 286 286 286 286 285 285 284 283 282 281 279 280 280 279 278 277 276 276 277 277 277 278 280 281 281 281 281 279 278 278 279 280 280 280 279 280 281 281 282 281 282 282 282 283 284 285 285 286 286 286 286 286 287 287 287 287 287 287 287 287 287 288 288 288 288 288 288 289 289 289 289 289 289 289 289 289 289 289
285 285 285 285 285 285 285 285 285 285 285 285 286 285 284 283 281 279 278 279 279 278 277 276 275 275 276 276 277 278 280 280 281 281 281 279 278 277 279 280 280 280 279 279 280 281 281 281 281 282 282 283 283 284 284 285 285 286 286 286 286 286 286 286 287 287 287 287 287 287 287 288 288 288 288 288 289 289 289 289 289 289 289 288 288 287
283 283 283 283 283 283 283 283 284 284 284 284 285 284 284 282 280 279 279 279 279 278 276 276 276 276 276 276 277 278 279 280 281 282 281 279 278 278 279 280 280 279 279 279 279 280 280 281 281 282 282 283 283 283 284 284 285 285 285 285 286 286 286 286 286 286 286 287 287 287 287 287 288 288 288 288 288 288 288 288 288 288 287 287 286 286
280 280 280 281 281 282 282 281 282 282 283 283 284 284 283 282 281 280 280 280 279 277 276 276 276 276 276 276 276 276 277 279 281 281 280 279 278 278 279 279 279 279 279 278 277 277 278 280 281 282 282 282 283 283 283 283 283 283 284 284 285 285 285 285 286 286 286 287 287 287 287 287 287 287 287 288 288 288 288 288 288 287 286 286 286 285
278 278 279 279 279 280 280 280 280 281 281 282 282 282 282 282 281 281 281 280 279 278 277 277 277 277 277 276 275 275 276 279 281 282 281 279 278 278 279 278 279 279 279 278 276 275 275 277 279 281 282 282 282 282 282 283 283 283 283 283 283 284 285 285 285 285 286 286 286 286 287 287 287 287 287 287 287 287 287 288 287 287 285 285 285 285
278 278 278 278 279 279 279 279 279 280 280 280 281 281 281 281 282 281 281 280 280 279 278 277 277 277 277 276 275 275 276 278 281 282 282 279 278 279 279 278 278 278 279 279 277 275 274 275 277 279 280 281 281 281 282 282 282 283 283 283 282 283 284 285 285 285 285 286 286 286 286 286 286 286 286 287 287 287 287 287 287 287 285 284 284 284
278 278 278 278 278 278 279 279 279 279 279 279 280 280 281 281 281 281 281 281 280 280 279 278 277 277 277 276 276 276 277 279 281 282 282 280 279 278 279 278 278 278 279 278 278 277 276 275 276 278 279 280 280 281 281 282 283 283 283 282 282 282 283 284 284 284 284 285 285 285 286 286 286 286 286 286 286 287 287 287 287 286 286 284 284 284
277 278 278 278 278 278 278 278 279 279 279 279 280 280 280 281 281 281 281 281 281 280 279 278 278 277 276 276 276 276 277 279 281 283 282 280 279 278 278 278 278 277 277 277 277 277 277 276 277 277 278 279 280 281 281 282 282 283 283 282 282 282 283 283 283 283 283 284 284 284 284 284 285 285 285 286 286 286 286 286 286 287 286 285 284 284
277 277 278 278 278 278 278 278 279 279 279 280 280 280 280 280 280 280 281 281 280 280 280 280 279 278 277 277 276 276 277 279 281 283 282 281 279 278 278 278 278 277 277 276 276 276 276 276 277 277 277 277 278 280 281 282 282 283 283 283 282 282 282 283 283 283 283 283 283 283 283 283 284 284 284 285 285 286 286 286 286 287 287 287 286 285
277 277 277 278 278 278 278 278 278 278 279 279 279 280 280 280 280 280 280 280 280 281 281 281 280 280 279 278 277 277 277 279 281 282 282 281 280 279 277 278 278 278 277 276 276 276 276 276 277 277 277 276 277 278 280 281 282 282 282 283 283 283 283 283 283 283 282 282 282 282 282 283 283 283 284 285 285 286 286 286 287 287 287 287 287 287
276 277 277 277 278 278 278 278 278 278 278 279 279 279 280 280 280 280 280 280 280 280 280 281 281 281 281 280 279 279 279 280 281 281 282 281 280 279 278 278 278 278 277 277 276 276 276 276 276 276 276 276 276 277 279 280 281 281 281 282 282 282 283 283 283 283 282 282 282 282 283 283 283 283 284 285 285 286 286 286 286 286 287 287 287 287
276 276 277 277 277 277 277 277 278 278 278 278 279 279 279 279 280 280 280 280 280 280 280 280 280 281 281 281 281 281 280 281 281 281 281 281 280 279 278 278 279 279 279 278 278 277 276 275 275 275 276 276 277 278 279 279 279 280 280 281 282 282 282 283 283 283 283 283 283 283 283 283 283 283 284 284 284 284 284 284 285 285 286 286 286 287
276 276 277 277 277 277 277 277 278 278 278 279 279 279 279 280 280 280 280 280 280 280 280 280 280 280 280 281 281 282 282 281 281 281 281 281 281 280 279 279 279 279 280 279 279 278 277 276 275 275 275 276 277 278 279 279 279 279 280 280 281 282 282 283 283 283 283 283 283 283 283 283 283 283 283 283 283 283 282 283 283 284 284 284 285 285
276 276 276 277 277 277 277 278 278 278 279 279 279 280 279 279 280 280 280 280 280 281 281 281 281 281 281 281 281 281 282 281 282 282 281 281 281 281 280 279 279 279 279 279 279 279 278 277 276 276 276 276 276 277 278 278 279 279 280 279 279 280 282 283 283 283 283 283 283 283 282 283 283 283 283 283 282 282 282 282 283 283 284 283 283 283
276 276 276 277 277 278 278 278 279 279 279 279 279 279 278 278 278 278 279 279 280 280 280 280 280 280 280 281 281 281 281 282 282 282 281 281 281 281 280 280 279 279 279 279 279 278 278 277 277 277 277 277 277 277 277 278 279 280 280 279 278 279 281 282 283 283 283 283 283 283 283 283 283 283 283 283 283 283 283 283 283 283 284 283 283 282
276 276 276 277 277 278 278 279 279 279 279 279 278 278 277 277 277 277 278 278 278 279 279 279 279 279 279 279 280 281 281 282 282 282 282 281 281 281 281 280 280 280 279 278 278 278 278 278 277 277 277 277 277 277 277 278 279 280 280 279 279 280 281 282 282 283 283 283 283 283 283 283 282 282 283 283 283 284 284 284 284 284 284 283 283 283
276 276 277 277 278 278 279 279 279 278 278 277 277 277 277 277 278 278 278 277 277 278 278 278 278 278 277 278 279 280 281 282 282 283 282 282 281 281 281 281 280 280 279 278 278 278 278 279 278 278 278 278 277 277 277 278 278 279 280 280 280 279 278 279 281 282 283 283 283 283 283 282 282 283 283 283 283 284 284 284 285 285 284 284 284 284
276 277 277 278 278 278 278 278 277 277 277 276 276 277 277 278 278 278 277 277 277 278 278 278 278 277 277 277 277 279 280 281 282 283 283 283 282 282 282 281 281 281 280 279 278 278 278 278 278 279 279 279 278 277 277 277 278 278 279 280 280 279 278 279 280 281 281 282 282 282 283 283 283 283 283 283 283 283 283 283 283 284 284 284 284 284
276 277 277 278 278 278 277 277 277 277 276 276 276 277 277 278 278 278 277 277 277 277 278 278 277 277 276 276 277 278 279 280 281 281 282 283 283 283 283 282 282 281 281 280 279 279 278 278 278 279 280 279 279 278 277 278 278 279 279 280 280 280 280 281 281 281 281 281 282 282 283 283 283 282 282 282 282 282 283 283 283 283 283 284 284 284
277 277 277 277 277 276 276 276 276 276 276 276 276 277 277 278 278 278 278 277 277 277 277 277 277 276 275 276 276 277 277 278 279 280 281 281 282 283 283 283 282 282 281 281 281 280 279 279 279 279 279 279 278 278 278 278 278 278 279 280 280 280 281 281 281 281 281 281 281 282 283 283 283 282 281 281 281 282 282 283 283 283 283 283 283 284
276 276 276 276 276 276 276 276 276 276 276 276 276 277 277 277 278 277 277 277 277 277 277 277 277 276 275 276 276 276 276 277 277 278 279 280 281 282 282 283 283 283 282 282 281 281 281 280 280 280 279 278 278 278 279 279 279 279 279 280 280 280 280 280 281 282 282 282 282 282 283 283 282 281 281 281 281 282 282 283 284 284 284 284 284 284
276 276 276 276 276 275 276 276 276 276 275 276 276 277 277 277 277 277 277 277 277 277 277 276 276 275 275 276 276 276 276 277 277 278 279 279 280 281 281 282 282 283 283 283 283 282 282 282 282 281 280 279 278 278 278 279 280 280 280 280 280 280 279 280 281 282 282 282 282 283 283 282 281 281 281 281 281 281 282 283 283 284 285 285 285 285
276 276 275 275 275 275 275 275 275 275 275 275 276 276 277 278 278 278 277 277 277 276 276 276 275 275 275 276 276 277 277 277 278 278 278 279 280 280 281 281 281 281 281 282 282 282 283 283 283 283 282 281 280 279 279 279 280 280 280 281 280 280 280 280 281 282 282 283 283 283 283 282 282 282 281 281 280 280 281 282 283 284 285 285 285 285
276 276 276 275 275 275 275 275 276 275 275 276 276 276 277 277 277 277 277 277 277 276 276 276 275 275 275 276 276 277 277 277 277 278 278 279 279 280 280 280 280 280 280 280 280 281 281 281 282 283 285 284 283 281 280 280 280 281 281 281 281 281 281 281 282 282 283 283 283 283 283 283 283 283 282 281 281 280 281 282 282 283 285 285 286 286
275 275 276 275 275 275 276 276 276 276 276 276 276 276 276 276 277 277 277 277 276 276 276 276 276 275 275 276 276 277 277 277 277 278 278 279 279 279 279 279 279 278 278 278 278 278 279 279 279 280 283 285 285 284 282 281 281 281 281 281 281 282 282 282 282 283 283 284 284 284 283 283 283 283 282 281 281 280 281 281 282 283 284 285 285 286
Wind_Speed
1 1 1 2 1 1 1 2 2 4 5 5 5 5 5 6 6 7 9 9 9 9 8 9 9 10 11 13 15 17 18 19 20 20 20 20 20 20 20 19 19 19 19 19 19 19 19 19 19 19 19 19 19 19 19 19 19 19 20 20 20 20 21 21 22 22 22 22 22 22 22 22 22 23 23 23 23 24 24 24 25 25 25 25 25 26
1 1 1 2 2 2 2 3 3 4 5 6 6 6 6 7 6 6 7 8 9 9 8 8 9 10 11 12 14 16 18 19 20 20 20 20 20 20 20 20 20 19 19 19 19 19 19 19 19 19 19 19 19 19 19 19 19 19 20 20 20 20 21 21 22 22 22 22 22 22 22 23 23 23 23 24 24 24 25 25 25 26 26 26 26 26
1 1 1 2 2 2 3 3 4 4 5 5 6 6 7 7 7 6 6 7 7 8 8 8 8 9 10 11 13 16 17 19 20 20 20 20 20 20 20 20 20 19 19 19 19 19 19 18 18 18 18 18 19 19 19 19 19 19 20 20 20 20 21 21 22 22 22 22 22 22 23 23 23 23 24 24 24 25 25 25 26 26 26 26 26 26
1 1 1 1 2 2 3 3 4 3 4 4 5 6 6 6 6 6 6 7 7 7 7 8 8 8 9 9 11 14 17 19 20 20 20 20 20 20 20 20 20 19 19 19 19 19 18 18 18 18 19 19 19 19 19 19 20 20 20 20 21 21 21 22 22 22 22 23 23 23 23 23 23 23 24 24 24 25 25 25 25 25 25 25 26 26
1 1 1 1 2 2 3 3 3 3 3 3 4 5 5 5 6 6 6 7 7 7 7 7 8 8 8 8 10 13 17 19 20 20 21 20 20 20 20 20 19 19 19 19 19 19 19 19 19 19 19 19 19 20 20 20 20 20 21 21 21 21 22 22 22 23 23 23 23 23 23 23 23 23 24 24 24 24 25 25 25 25 25 25 25 25
1 1 1 1 2 2 2 2 2 2 3 3 4 5 5 5 5 5 6 6 6 6 6 7 7 8 8 9 11 13 16 18 19 20 20 20 20 20 19 19 19 19 19 19 19 19 19 19 19 19 20 20 20 20 20 21 21 21 21 22 22 22 22 22 22 23 23 23 23 23 23 23 23 23 23 23 24 24 24 24 24 24 24 25 25 25
1 1 1 1 2 2 2 2 2 2 3 4 4 5 5 5 5 5 5 5 5 6 6 7 7 8 9 9 11 13 14 16 17 18 18 18 18 18 18 18 18 19 19 19 19 19 19 19 20 20 20 20 21 21 21 21 22 22 22 22 22 22 22 22 22 22 22 22 22 22 22 22 22 23 23 23 23 23 23 23 24 24 24 24 24 25
2 2 1 2 2 2 2 2 2 2 3 4 5 5 5 4 4 5 5 5 5 5 6 7 7 7 8 9 10 10 11 12 12 13 14 15 15 16 16 17 18 18 19 19 19 19 19 20 20 20 21 21 21 22 22 22 22 22 22 22 22 22 22 22 22 22 22 22 22 22 22 22 22 22 22 22 22 23 23 23 23 24 24 24 24 24
3 3 2 2 2 3 3 3 2 3 3 4 5 5 5 5 5 4 5 5 5 5 6 6 7 7 8 8 8 9 9 10 10 10 11 11 11 13 14 15 16 17 18 19 19 20 20 20 21 21 21 22 22 22 22 22 22 22 22 22 22 21 21 21 21 21 21 21 21 21 21 21 22 22 22 22 22 22 22 23 23 23 24 24 24 25
3 3 3 3 2 2 3 4 4 3 4 4 4 4 4 5 5 6 6 6 5 5 5 6 7 7 8 8 8 8 9 10 11 12 12 12 13 14 15 15 15 16 18 18 19 20 20 21 21 21 22 22 22 22 22 22 22 21 21 21 21 21 21 21 21 21 21 21 21 21 21 21 21 22 22 22 22 22 23 23 23 23 24 24 24 25
3 3 3 2 2 2 2 3 4 4 4 3 3 2 2 3 4 6 7 7 7 6 5 6 6 7 7 7 8 8 8 8 9 10 12 13 14 15 15 15 15 15 17 18 19 19 20 20 21 21 22 22 22 22 21 21 21 21 21 21 21 21 21 21 21 21 22 21 21 21 22 22 22 22 22 22 23 23 23 23 23 23 23 24 24 25
2 2 2 2 2 2 2 3 3 3 2 2 2 2 3 3 4 5 7 8 8 7 6 6 6 6 7 8 8 7 7 7 7 7 8 9 10 10 10 11 11 12 14 15 16 17 18 19 20 20 20 20 21 21 20 20 20 21 21 21 21 21 21 22 22 22 22 22 22 22 22 22 22 22 23 23 23 23 23 23 24 24 24 24 24 25
2 2 2 2 2 3 3 3 3 2 1 1 2 4 4 4 5 5 6 7 7 7 7 7 6 7 7 7 7 7 7 7 7 7 6 7 7 7 6 7 8 8 9 10 11 12 15 16 17 18 18 19 19 20 20 20 20 21 21 21 22 22 22 22 22 22 22 22 22 23 23 23 23 23 23 23 24 24 24 24 24 24 24 24 25 25
2 2 2 3 3 3 3 4 3 2 1 2 3 4 5 5 5 6 6 7 7 7 7 7 7 7 6 7 7 6 6 6 6 6 6 6 6 6 6 7 7 8 8 8 9 10 12 13 13 14 16 17 18 18 18 19 20 21 21 22 22 22 22 22 23 23 23 23 23 23 23 23 23 24 24 24 24 24 24 24 24 24 24 25 25 25
2 2 3 4 4 4 3 3 3 3 3 3 4 5 5 5 6 6 6 6 6 6 6 7 7 7 5 5 5 5 6 6 6 6 7 7 7 7 7 8 8 8 8 8 9 9 11 11 10 11 12 14 16 17 18 19 21 22 22 23 23 23 23 23 23 23 23 23 23 23 23 23 24 24 24 24 24 24 24 24 24 24 24 25 25 25
2 3 4 5 5 4 2 2 3 4 4 4 5 5 6 6 5 5 6 6 6 6 6 7 7 7 5 5 5 5 5 5 6 7 8 8 7 7 8 8 8 8 8 8 9 9 9 9 10 10 11 14 17 19 21 21 22 23 23 24 24 24 24 24 24 24 24 24 24 24 24 24 24 24 24 24 24 24 24 24 24 24 24 24 25 25
3 3 4 4 4 3 2 2 3 4 5 5 5 5 5 5 5 5 6 6 5 5 5 5 6 6 5 5 4 4 5 5 6 6 8 8 8 8 8 8 8 8 8 8 8 8 8 9 9 10 11 14 18 20 22 23 23 24 24 25 25 24 24 24 24 24 24 24 24 24 24 24 24 24 24 24 24 24 24 24 24 24 24 24 24 25
3 2 2 3 3 3 4 4 4 4 5 5 5 5 5 5 5 6 6 6 6 5 5 5 5 5 5 5 5 4 5 6 6 7 8 8 8 8 7 7 8 8 8 8 8 8 8 9 9 10 12 17 20 22 23 24 25 25 25 25 25 25 25 25 25 24 24 24 24 24 24 24 24 24 24 24 24 24 24 24 24 24 24 24 24 24
3 2 3 4 4 4 5 5 5 5 4 5 5 5 6 6 6 6 6 5 6 6 6 5 5 5 6 7 6 6 6 7 7 7 8 8 8 8 7 7 7 8 8 9 9 8 8 9 11 13 16 20 22 23 24 24 25 25 25 25 25 25 25 25 25 25 25 25 25 25 24 24 24 24 24 24 24 24 24 24 24 24 24 24 24 24
4 4 4 5 5 5 5 5 5 5 5 5 6 6 6 6 6 6 6 5 5 5 4 5 6 6 6 8 8 8 7 7 7 7 7 8 9 8 7 7 7 8 8 8 8 8 8 9 10 13 17 19 21 22 23 24 25 25 25 25 25 25 25 25 25 25 25 25 25 25 25 24 24 24 24 24 24 24 24 24 24 24 24 24 24 24
5 5 5 5 5 5 4 4 5 6 6 7 7 7 7 7 6 6 5 5 5 4 4 5 6 6 6 8 9 8 8 7 7 6 5 7 7 7 6 6 7 8 8 8 8 8 8 9 9 10 13 17 20 22 23 24 25 25 25 25 26 26 25 25 25 25 25 25 25 25 25 24 24 24 24 24 24 24 24 24 24 24 24 24 24 24
4 5 5 5 5 5 4 5 6 8 9 9 8 7 6 6 6 5 5 4 5 5 5 6 7 7 8 9 9 9 8 7 6 5 5 6 7 8 6 6 6 8 8 8 8 8 9 9 9 10 13 18 21 22 24 24 25 25 25 26 26 26 25 25 25 25 25 25 25 25 25 25 25 24 24 24 24 24 24 24 24 24 24 24 24 24
4 5 5 5 5 5 5 6 7 8 9 8 8 7 5 5 5 5 5 5 5 6 6 7 7 8 9 9 9 8 7 6 5 5 5 7 8 7 5 6 6 7 8 8 8 8 9 9 9 11 14 18 21 22 23 24 24 25 25 25 25 25 25 25 25 25 25 25 25 25 25 25 25 24 24 24 24 24 24 24 24 24 24 24 24 24
5 5 5 4 4 4 5 6 6 6 6 6 6 5 5 5 5 5 5 6 6 7 7 7 8 8 8 8 8 7 6 5 4 4 4 6 7 7 6 6 7 8 8 8 8 9 9 10 10 10 11 16 19 21 23 23 24 24 25 25 25 25 25 25 25 25 25 25 25 25 25 25 25 25 25 25 24 24 24 24 24 24 24 24 24 24
5 5 5 5 5 6 7 7 6 6 5 4 4 4 4 6 7 7 7 7 7 7 6 7 8 8 7 7 7 6 5 4 3 4 4 5 6 7 6 6 7 8 8 8 8 9 9 10 10 10 10 13 17 20 21 22 23 24 24 24 25 25 25 25 25 25 25 25 25 25 25 25 25 25 25 25 25 24 24 24 24 24 24 24 24 24
7 7 7 8 9 10 11 11 11 11 11 9 8 7 7 8 8 7 7 7 6 6 6 7 7 7 6 6 6 5 4 3 3 4 4 4 6 7 6 6 7 8 8 8 8 8 9 10 10 10 10 11 14 17 20 21 22 23 23 24 24 24 24 25 25 25 25 25 25 25 26 25 25 25 25 25 25 24 24 24 24 24 24 24 24 23
9 9 10 11 11 12 13 14 15 16 17 15 13 11 9 8 7 7 7 6 5 5 6 6 7 7 6 6 6 5 5 4 4 4 4 5 6 6 6 6 6 7 9 8 8 8 10 10 10 10 10 10 11 14 17 19 21 22 23 24 24 24 25 25 25 25 25 25 25 25 25 25 25 25 25 25 24 24 24 24 24 24 24 23 21 19
8 9 9 10 11 12 13 14 14 15 15 16 16 14 11 7 6 6 6 5 5 5 5 6 6 6 6 6 6 6 6 5 4 4 4 4 5 6 6 6 7 7 8 7 8 9 10 10 10 10 10 10 10 11 14 17 19 20 22 23 24 24 24 25 25 25 25 25 25 25 25 25 25 25 25 24 24 24 24 24 24 23 22 19 15 12
7 8 9 10 11 12 12 12 12 13 14 14 14 12 9 6 5 5 5 4 4 5 6 6 6 6 6 7 7 7 6 5 4 3 2 3 4 5 6 6 7 7 7 7 7 7 8 8 8 8 8 9 10 10 11 14 16 17 18 21 22 23 23 23 24 24 24 24 24 25 25 25 24 24 24 24 24 24 24 24 23 21 17 14 11 10
5 6 7 8 9 9 9 9 9 10 12 12 12 11 8 5 4 4 4 4 5 5 6 6 6 6 6 6 7 6 5 4 2 1 1 3 4 5 6 7 7 6 6 6 6 6 6 6 6 7 8 9 10 9 10 11 11 12 13 16 17 19 20 21 22 23 23 24 24 24 24 24 24 24 24 24 24 24 24 24 22 18 12 10 9 9
4 5 5 6 6 6 6 6 7 7 9 9 9 8 6 5 4 4 4 4 5 5 6 6 6 6 6 5 5 5 4 3 2 2 3 4 4 5 6 7 7 6 5 5 5 6 6 6 5 6 8 9 9 10 10 10 10 10 10 11 12 14 17 19 20 21 21 22 23 23 24 24 24 24 24 24 24 24 24 24 21 17 11 10 9 9
4 4 4 4 4 4 4 5 5 5 5 6 6 6 5 5 5 4 4 4 5 5 5 6 6 6 6 6 6 5 5 4 5 6 6 5 4 5 6 6 7 7 5 5 5 6 6 6 6 7 8 9 9 9 10 10 10 10 10 10 10 11 15 16 17 18 18 19 20 21 22 23 23 23 23 23 23 23 23 24 21 17 11 10 9 10
4 4 4 4 4 4 4 4 4 4 4 4 4 4 5 5 5 5 4 4 4 5 5 6 6 7 7 7 7 7 6 6 7 7 7 5 4 5 5 6 7 7 6 6 6 6 6 7 7 8 8 8 9 9 9 10 10 9 9 10 10 10 13 13 13 14 14 15 16 17 19 20 21 21 22 22 22 23 23 23 21 19 14 11 9 9
4 4 4 4 4 4 4 4 4 4 4 4 4 4 4 4 4 5 5 5 5 5 5 6 6 7 7 7 8 8 8 7 7 8 7 5 5 5 6 7 7 7 7 6 6 6 6 8 8 8 8 8 8 8 9 9 9 9 9 9 9 10 10 11 11 11 12 12 12 13 14 15 16 18 19 20 20 20 21 21 21 20 18 14 11 10
4 5 5 4 4 4 4 4 4 4 4 4 4 4 4 4 4 5 5 5 5 5 5 6 6 7 7 7 8 8 8 8 8 8 8 6 5 5 6 7 7 7 7 7 7 6 6 8 9 9 9 9 9 8 8 8 9 9 9 9 9 10 10 10 10 10 11 11 11 11 11 11 11 13 14 16 17 18 20 21 21 21 21 19 16 13
4 5 5 4 4 4 4 4 4 4 4 4 4 4 4 5 5 5 5 5 5 6 6 6 7 7 7 7 8 9 9 9 9 9 9 7 6 6 6 6 7 7 7 8 8 7 7 9 10 10 10 10 9 8 8 8 8 9 9 9 9 10 10 10 10 10 10 10 10 10 10 10 10 11 11 15 17 19 20 21 21 22 22 22 21 18
4 5 5 4 4 5 5 5 4 4 4 4 4 4 5 5 5 5 6 6 6 6 7 8 8 8 9 9 9 9 10 10 10 10 11 9 8 7 7 7 8 8 8 8 8 8 8 9 10 10 10 10 9 8 8 8 9 9 9 9 9 10 10 10 10 10 10 11 11 11 10 10 10 11 11 15 16 18 19 20 20 20 21 21 21 21
5 5 5 4 4 4 5 5 5 4 5 5 5 5 6 6 6 7 6 7 7 7 7 7 8 9 12 12 12 12 12 13 13 13 13 11 9 8 8 8 9 9 8 8 8 8 8 9 10 10 9 9 10 10 10 10 10 10 10 10 10 10 10 10 10 10 10 10 11 11 11 11 11 10 11 12 12 12 12 13 14 15 17 18 19 20
5 5 5 5 5 5 5 5 5 5 5 5 6 6 6 7 7 7 7 7 7 8 8 8 8 9 10 11 13 14 14 14 14 13 13 11 10 9 9 9 9 10 9 9 8 8 9 9 9 9 9 9 10 11 10 10 10 11 11 10 10 10 10 10 10 9 10 10 11 11 11 11 10 10 10 10 9 9 10 10 10 11 12 11 13 15
5 5 5 5 5 5 5 5 5 5 6 6 6 7 6 6 6 6 7 7 7 7 8 9 9 8 9 10 11 12 13 11 11 11 11 10 9 9 9 9 9 10 9 9 9 9 9 9 10 11 11 10 10 10 10 10 11 11 11 10 9 9 10 10 10 10 10 10 10 11 10 10 10 10 10 9 9 9 9 9 9 10 10 9 9 10
5 5 5 5 5 5 5 6 6 6 6 6 6 6 5 6 6 6 6 6 6 7 7 7 8 8 9 9 9 10 11 11 11 11 10 10 10 10 9 9 9 9 9 9 9 9 9 10 11 11 11 11 11 12 12 12 13 14 13 11 11 10 11 11 11 10 10 10 10 10 10 11 11 10 10 10 10 10 9 9 10 10 9 9 8 8
5 5 5 5 5 5 5 6 6 6 6 6 6 5 5 5 5 6 6 6 6 6 6 6 7 8 9 9 9 9 9 9 10 10 10 10 11 11 10 9 9 9 9 9 10 10 10 10 11 11 11 11 11 11 12 13 13 13 13 12 12 12 12 12 10 10 9 10 9 10 11 11 10 10 10 10 10 10 10 10 11 11 11 10 9 9
5 5 5 5 5 5 6 6 6 6 5 5 5 5 5 5 5 6 6 6 7 7 7 7 7 8 9 9 9 8 8 8 8 9 9 9 10 10 11 11 10 9 8 9 10 10 11 11 11 11 11 11 11 11 12 13 13 13 12 12 12 10 8 8 8 9 9 10 10 10 10 10 10 10 10 10 10 10 10 11 12 13 12 11 10 10
5 5 5 5 5 5 5 5 5 5 5 5 6 6 6 6 6 6 6 6 7 7 7 7 7 8 9 9 9 9 8 7 7 8 8 9 10 10 10 11 11 11 10 9 9 10 10 11 11 11 11 10 11 11 12 12 13 13 12 12 12 11 9 9 10 10 10 10 10 10 11 11 10 10 10 10 10 10 10 10 10 11 12 11 11 10
5 5 5 5 5 5 5 5 5 5 5 6 6 6 6 6 6 6 6 7 7 7 7 7 7 7 8 8 9 9 8 8 7 7 7 9 10 11 11 10 10 10 10 10 10 9 9 10 11 11 10 10 10 11 12 12 13 13 13 13 12 12 12 12 11 11 11 11 11 11 11 11 11 10 10 10 10 10 10 10 10 10 10 10 10 11
5 5 5 5 5 5 6 6 6 5 5 6 6 6 6 6 6 6 6 7 7 7 7 6 6 7 8 8 9 9 9 9 8 8 7 7 8 8 9 9 9 9 8 9 10 10 10 10 11 11 10 10 11 12 12 12 12 12 13 13 12 12 12 11 11 11 11 11 11 12 12 12 11 10 10 10 10 10 10 10 10 11 11 10 10 11
5 5 5 5 5 5 6 6 6 6 6 6 6 6 6 6 6 6 6 6 7 7 7 7 7 7 8 9 9 9 9 10 10 9 8 8 8 8 8 8 8 9 9 9 10 10 11 11 11 11 11 11 11 12 12 12 12 12 12 12 12 11 11 11 11 11 11 11 12 12 13 12 11 11 11 11 11 10 10 10 10 11 11 10 10 10
5 5 5 5 6 6 6 6 5 6 6 6 6 6 6 6 6 7 6 6 6 6 7 7 7 8 8 9 9 9 9 10 10 10 10 9 9 8 8 8 8 8 9 10 11 11 12 12 13 13 12 11 12 12 13 12 12 12 12 11 11 11 12 12 11 11 11 12 12 12 12 11 10 11 11 11 11 10 10 10 10 10 10 10 10 10
5 5 6 6 6 6 6 6 6 6 6 6 6 6 6 6 7 7 6 6 6 6 7 7 8 8 8 8 9 9 10 10 10 10 10 9 9 9 8 8 8 8 9 9 10 10 11 12 13 13 13 12 12 13 13 13 12 12 11 11 11 11 12 12 12 11 11 12 12 12 11 10 10 10 10 11 11 11 11 11 10 10 9 9 10 10
5 5 6 6 6 6 6 6 6 6 6 7 7 7 6 6 6 6 6 6 6 6 7 7 8 8 9 9 9 9 10 10 10 9 9 9 8 8 9 9 9 9 9 9 9 9 8 8 9 11 13 14 14 13 13 13 12 12 11 11 10 10 11 11 11 11 11 11 11 11 11 10 10 9 9 10 12 12 12 11 11 10 9 9 9 10
5 6 6 6 6 6 6 6 6 6 7 7 7 7 7 6 6 6 6 6 6 7 7 7 8 8 9 9 10 10 10 9 10 10 10 9 9 9 9 9 9 9 9 9 8 8 7 7 7 8 9 12 14 14 12 12 11 11 11 10 10 10 10 10 11 11 12 11 11 10 10 10 10 9 9 9 10 11 12 12 11 10 9 9 9 9
Wind_Direction
230 175 151 172 196 230 234 217 246 273 285 291 297 304 309 311 310 309 307 305 302 300 299 298 297 297 297 297 298 299 301 302 302 302 302 302 302 302 302 302 302 301 301 301 301 300 299 298 297 296 295 294 294 293 293 292 292 291 291 291 291 291 290 290 290 290 290 291 291 292 292 293 293 294 294 293 293 292 291 290 289 288 286 286 285 284
208 192 167 172 194 234 261 232 238 260 283 295 303 309 314 313 311 308 305 301 298 297 297 297 297 297 297 297 298 299 300 301 302 302 302 302 302 302 303 303 302 302 302 301 301 300 299 298 297 296 295 295 294 293 293 292 292 292 291 292 292 292 292 291 291 291 292 292 292 292 292 292 292 292 291 290 289 288 287 286 285 284 283 283 282 282
185 192 186 175 192 227 263 255 252 259 279 295 304 309 312 309 306 303 301 299 298 297 296 296 296 296 297 297 298 299 300 301 302 302 303 303 303 303 303 303 303 302 302 301 301 300 299 298 297 297 296 295 295 294 294 293 293 293 293 293 293 293 293 293 293 293 293 292 292 292 292 291 290 290 289 287 286 285 284 283 282 282 281 281 281 280
213 217 211 198 213 231 251 265 271 276 285 296 303 304 303 300 297 295 295 295 295 295 294 293 294 295 296 296 298 299 300 301 302 302 303 303 304 304 304 303 303 302 302 301 301 300 299 299 298 298 297 296 295 295 295 295 295 294 295 295 295 294 294 294 294 293 293 292 292 291 290 290 289 288 286 285 284 283 282 282 281 281 281 281 280 280
212 216 215 229 242 246 244 258 273 287 298 300 299 297 292 289 289 291 292 292 291 292 293 294 295 295 296 296 297 298 299 301 301 302 303 303 303 303 303 302 302 302 301 301 300 300 299 299 298 298 297 297 296 296 296 296 296 296 296 296 296 295 295 295 294 293 293 292 291 290 289 288 287 286 285 284 283 282 282 281 281 281 280 280 279 279
217 211 211 242 261 271 271 271 283 296 304 300 296 292 288 286 285 286 287 288 290 291 295 297 297 297 295 294 295 297 298 299 300 301 301 301 300 300 300 300 300 300 300 300 299 299 299 299 298 298 298 298 297 297 297 297 297 297 297 296 296 296 295 295 294 293 292 291 290 289 287 286 285 284 283 283 282 282 281 281 280 280 280 279 279 278
242 220 223 252 267 277 285 286 292 299 304 301 299 295 290 285 282 281 282 285 289 292 295 295 296 295 294 293 294 296 297 298 298 298 298 298 297 297 297 298 298 298 298 298 298 298 298 298 298 298 298 298 298 298 298 298 298 298 297 297 296 296 295 294 293 292 291 289 288 287 286 285 284 283 282 282 281 281 281 280 280 279 279 278 278 277
263 255 251 264 273 279 281 281 283 289 294 297 299 297 293 290 287 284 282 281 283 287 292 294 295 295 295 296 296 296 296 296 296 295 295 295 294 295 295 296 296 297 297 297 297 297 298 298 298 298 298 299 299 298 298 298 298 298 298 297 296 296 295 293 292 291 290 288 287 286 285 284 283 282 281 281 280 280 279 279 278 278 277 277 277 276
266 270 269 269 278 287 291 288 284 283 285 288 291 294 297 298 297 293 288 283 283 287 294 298 299 298 298 298 298 296 294 292 291 291 291 292 293 294 294 296 296 297 297 297 297 298 298 298 298 299 299 298 298 298 298 298 298 298 297 297 296 295 294 293 292 291 290 288 287 286 284 283 282 281 280 279 278 278 277 277 276 276 276 276 276 276
259 267 275 273 273 278 288 291 291 287 279 280 283 288 294 298 299 300 298 296 296 298 299 300 300 300 300 298 297 295 292 289 287 287 287 288 290 291 293 294 295 296 296 297 297 298 298 298 298 298 298 298 297 297 297 297 297 297 297 296 295 295 294 293 292 291 289 288 286 285 283 282 281 280 279 278 277 277 276 276 276 275 276 276 276 276
255 261 269 272 265 258 262 280 287 288 280 279 277 274 268 282 296 303 305 305 306 305 303 300 299 299 299 298 296 295 293 290 288 287 286 286 287 288 289 290 292 293 295 296 297 297 297 297 298 297 297 297 296 296 296 296 296 296 296 296 295 294 293 292 290 289 288 287 285 284 283 281 280 279 279 278 277 277 276 276 276 276 276 276 276 276
262 265 265 271 273 272 269 276 279 279 278 278 281 280 274 283 297 305 306 306 306 306 304 301 297 294 293 294 294 293 292 291 290 290 288 288 287 287 288 290 291 293 294 295 295 296 296 297 297 297 296 296 295 295 295 296 295 295 295 294 293 292 291 290 289 288 287 286 285 284 283 282 281 281 280 279 279 278 277 277 277 277 277 276 276 276
256 260 264 273 279 281 281 283 282 280 271 279 294 299 302 306 308 305 301 301 302 303 302 300 296 291 288 287 287 288 289 290 292 293 294 293 293 292 294 294 295 295 296 296 295 296 297 297 297 296 296 295 295 294 295 294 294 294 293 292 292 291 290 289 289 288 287 287 286 285 285 284 283 282 281 280 280 279 278 277 277 276 276 275 275 275
256 257 267 275 278 279 279 285 291 294 291 293 300 304 306 308 307 303 298 296 297 298 297 295 294 292 288 283 281 282 287 291 294 296 297 298 300 302 302 301 300 300 300 299 297 297 298 299 298 296 295 294 293 293 293 293 292 292 292 291 291 291 290 290 290 289 288 288 287 286 286 285 284 283 282 281 280 279 278 277 277 276 275 274 274 273
265 270 276 279 280 282 286 294 298 300 300 304 306 306 305 303 301 299 298 297 297 298 296 293 292 290 288 286 285 286 288 293 298 300 301 301 303 305 305 303 301 300 299 297 296 295 297 296 295 293 292 291 291 291 291 292 292 292 292 292 292 292 291 291 291 290 290 289 288 287 286 285 284 283 283 282 281 280 279 278 277 276 275 275 274 273
264 268 274 281 286 291 303 307 305 303 305 307 306 305 303 301 300 299 297 297 297 297 296 297 297 295 291 292 292 293 294 297 300 303 304 303 303 305 306 303 300 298 296 294 294 294 295 293 291 290 289 289 290 291 291 291 292 292 292 292 292 292 292 292 291 290 290 289 288 287 286 285 284 284 283 283 282 281 280 280 279 278 276 276 275 274
269 274 281 290 297 302 307 301 302 304 306 304 303 301 299 299 298 296 294 293 293 294 294 298 300 302 302 301 299 300 304 305 306 305 304 302 302 303 304 301 298 295 293 291 290 291 291 289 288 287 287 288 289 290 291 291 292 292 292 293 293 292 292 292 291 291 290 289 288 288 287 286 286 285 284 284 283 282 282 281 280 279 278 277 276 275
284 292 302 301 300 300 301 300 301 302 302 302 300 298 295 292 290 287 284 285 286 288 290 291 294 298 301 301 303 309 317 315 311 307 303 299 299 300 300 296 293 290 289 287 287 286 287 286 285 285 285 287 288 289 290 291 291 291 292 292 292 292 292 292 292 291 291 291 290 289 289 288 287 286 286 285 284 284 283 282 281 280 279 278 277 276
296 296 292 291 294 297 300 302 304 305 304 304 303 301 295 288 283 279 276 276 278 280 284 286 288 289 291 293 298 308 318 316 312 307 302 298 297 297 298 293 289 287 286 286 286 286 287 285 285 284 285 286 287 288 289 290 290 291 291 291 292 292 292 293 293 293 292 292 291 290 290 289 288 287 286 286 285 284 284 283 282 281 280 279 277 276
298 294 294 296 297 298 297 298 301 303 303 300 296 292 287 284 281 278 276 276 275 275 277 279 282 285 288 291 297 305 314 315 310 304 298 295 294 293 295 292 289 288 286 286 287 287 287 285 284 284 284 285 286 287 288 289 289 290 291 291 292 293 293 293 293 293 293 292 292 291 290 289 288 287 287 286 285 285 284 283 282 281 281 280 279 277
295 292 291 294 296 295 293 295 297 297 296 293 289 285 282 281 279 277 277 278 277 274 272 276 282 288 293 294 297 302 310 310 307 301 296 292 290 290 293 291 289 287 286 286 287 287 286 285 284 284 285 285 286 287 288 288 289 290 291 292 292 293 293 293 293 293 292 292 292 291 290 289 288 288 287 286 285 285 284 284 283 283 282 281 281 280
291 290 292 293 291 290 291 295 295 293 288 283 279 276 276 276 277 279 281 281 280 280 281 285 290 293 293 291 293 296 303 301 299 297 295 289 287 288 291 290 288 287 286 287 288 288 287 286 286 286 286 287 287 287 288 289 289 290 291 291 292 292 292 292 292 292 292 291 291 290 290 289 288 287 287 286 286 285 285 285 285 284 284 283 283 282
280 286 292 292 290 289 289 288 285 280 277 273 270 268 268 271 276 281 286 287 289 291 293 293 291 289 286 285 287 289 292 291 290 290 288 285 286 288 292 293 290 287 286 289 291 292 291 289 288 288 288 288 288 288 289 289 290 290 291 291 292 292 292 292 292 291 291 291 290 290 289 289 288 288 288 287 287 287 287 287 286 286 285 284 284 283
284 289 293 290 285 278 274 273 270 267 265 263 263 262 263 267 274 282 288 291 293 293 292 290 288 285 282 283 284 286 287 287 284 280 279 280 284 288 295 295 292 289 287 290 293 295 294 291 289 288 288 288 288 289 289 290 290 290 291 291 291 291 291 291 291 291 291 291 291 291 290 290 290 290 290 289 289 288 288 287 286 286 285 284 283 281
294 292 290 284 278 275 274 274 275 278 281 278 277 278 282 286 289 291 292 291 291 290 289 288 287 285 285 287 288 287 288 283 274 269 272 278 283 287 293 294 291 290 289 293 295 295 293 291 290 289 289 289 289 290 290 290 291 291 291 291 291 291 291 291 291 291 292 292 292 292 292 292 291 291 290 289 289 288 287 286 285 285 284 283 282 281
299 296 295 296 297 298 300 302 304 307 309 308 307 306 304 301 298 295 291 289 289 290 291 288 287 287 290 290 290 289 290 279 265 260 269 277 284 288 290 291 290 290 291 293 294 294 293 292 292 292 291 291 291 291 291 291 291 291 291 291 291 291 292 292 292 292 292 292 292 292 291 291 290 289 289 288 287 286 286 285 285 284 284 283 282 281
309 309 310 312 314 315 315 314 312 310 308 306 304 302 301 299 295 290 285 287 292 295 293 289 289 290 292 290 288 289 293 290 279 270 270 277 282 286 289 292 293 293 293 294 295 295 294 293 292 292 291 291 291 291 291 291 291 292 291 292 292 292 292 292 292 292 291 291 291 290 290 289 288 288 287 287 287 286 286 285 285 285 285 285 283 281
323 323 323 323 321 319 316 312 308 306 303 301 299 298 296 293 287 283 282 290 296 296 288 286 288 290 291 290 291 292 294 290 283 278 275 276 278 282 289 294 296 297 297 296 295 293 290 288 287 288 288 289 290 290 291 292 293 293 292 292 292 292 292 291 291 291 290 290 289 289 288 288 288 287 287 287 287 287 287 287 287 287 287 286 284 281
331 327 324 321 318 315 312 308 305 302 299 298 298 297 295 289 282 279 283 292 293 288 281 281 282 285 288 290 292 292 289 285 281 278 275 276 278 282 291 297 299 300 301 299 296 291 285 283 283 286 289 291 292 293 294 295 294 293 292 291 291 290 290 290 290 289 289 289 289 288 288 288 288 288 288 288 288 288 288 288 288 288 287 285 282 279
326 321 316 312 309 307 304 300 297 294 294 295 295 295 292 286 279 277 281 283 281 279 278 279 280 283 286 291 292 291 286 285 283 276 273 280 282 287 296 298 300 301 305 304 301 296 289 286 286 290 294 296 296 296 295 294 293 291 290 290 290 289 289 289 289 289 289 289 289 289 289 288 288 288 288 288 288 288 288 288 288 288 285 283 280 277
309 305 301 298 295 293 290 286 285 286 289 292 293 292 289 281 273 269 269 269 269 272 276 278 280 281 285 289 291 289 288 294 302 304 299 290 288 292 299 298 298 300 304 304 303 302 300 298 297 297 299 298 296 294 292 291 291 290 289 289 288 288 288 289 289 289 289 289 289 289 289 289 288 288 288 288 287 287 287 287 287 286 284 282 279 277
299 296 292 289 285 281 278 278 278 281 283 285 284 282 277 273 269 265 263 263 265 268 272 276 278 280 280 279 279 280 283 293 301 305 304 294 289 290 295 295 295 297 299 295 293 294 298 301 303 303 301 297 294 291 290 289 289 288 288 288 288 287 289 290 290 290 289 289 289 289 288 288 288 287 287 286 286 285 285 285 285 284 282 280 278 277
302 298 293 289 284 279 276 275 275 275 275 273 271 269 269 269 269 269 268 266 266 268 271 275 277 278 278 275 273 273 276 283 292 298 300 294 290 289 293 293 293 294 296 291 286 282 282 289 295 299 297 293 291 290 290 289 288 287 287 288 288 288 290 291 290 289 289 289 289 288 288 287 287 286 285 284 284 283 283 283 282 281 280 278 276 274
308 304 299 295 289 283 278 275 274 272 274 273 273 273 275 276 277 277 276 273 271 269 269 271 273 275 277 276 275 274 275 279 287 295 300 295 290 288 292 292 292 294 296 292 288 284 279 283 287 292 294 292 290 289 290 290 289 288 287 286 287 288 289 290 290 289 288 288 288 287 287 286 285 284 283 282 281 280 280 280 279 278 276 274 271 269
309 305 301 296 291 286 282 279 278 279 283 286 287 287 288 287 285 282 279 276 272 268 265 264 264 266 269 273 275 277 278 283 290 297 299 293 289 288 290 289 290 293 293 290 289 288 285 284 286 289 293 294 293 290 289 289 289 288 286 285 285 286 287 289 289 288 288 287 285 284 283 283 282 281 280 279 278 278 278 278 277 276 275 273 271 269
308 305 302 300 297 295 295 296 296 297 297 295 293 292 291 290 287 284 280 276 272 269 267 264 262 261 261 264 269 273 278 284 289 293 292 288 286 285 285 285 287 288 287 286 285 285 285 286 287 289 290 291 292 292 291 291 291 290 289 288 287 287 286 287 287 286 285 284 282 281 280 280 279 278 277 277 277 277 277 277 277 277 276 274 273 271
303 302 304 305 306 306 306 306 306 305 302 300 299 297 296 294 291 287 282 277 272 269 268 266 264 262 259 259 262 266 273 280 284 285 283 281 280 279 278 280 281 281 280 280 281 283 284 286 287 288 286 286 287 292 296 298 297 295 292 292 291 289 287 286 284 282 281 279 279 278 278 278 278 277 277 277 278 278 278 278 277 277 276 275 274 272
304 306 308 310 310 309 308 307 306 305 304 305 304 302 300 296 292 289 285 279 275 271 269 267 266 264 263 263 263 265 269 273 275 276 275 274 272 271 272 275 276 276 273 274 277 280 282 284 286 288 287 285 286 289 294 297 298 296 294 293 291 289 286 285 283 280 278 278 277 278 278 278 278 278 278 278 279 279 278 277 276 275 275 274 273 271
304 305 306 308 309 309 308 307 306 305 305 305 303 302 299 296 292 289 286 283 280 277 275 273 272 270 267 265 265 266 267 268 269 269 268 266 265 265 267 271 273 274 273 272 273 274 275 277 280 282 285 287 289 290 290 292 292 293 295 294 291 287 284 285 285 283 282 281 281 280 279 278 277 276 276 276 276 275 275 274 273 272 272 272 271 270
303 303 304 305 307 306 304 303 304 305 305 303 301 300 298 297 294 292 289 288 285 283 282 280 277 274 272 270 269 268 269 267 266 266 264 260 258 257 261 266 270 273 274 272 270 269 269 271 273 276 278 282 286 289 290 289 289 291 295 295 293 290 289 290 289 288 285 282 281 280 279 277 275 274 272 272 271 270 269 269 270 270 270 269 270 271
304 303 303 303 303 301 300 300 302 303 302 301 301 301 300 300 298 296 293 291 289 287 286 284 283 281 279 276 274 273 272 269 266 264 261 257 254 253 256 260 265 268 271 271 270 268 266 269 272 274 276 278 281 283 284 285 287 289 291 289 288 288 291 291 289 286 283 280 278 277 278 278 276 275 272 271 269 268 266 266 267 268 267 264 263 264
302 301 301 301 300 300 299 301 302 302 303 303 302 301 300 299 298 297 297 296 294 293 293 293 294 293 291 287 282 276 271 267 264 261 259 255 252 252 254 257 259 263 266 269 269 268 266 267 269 271 273 275 278 280 282 283 285 286 285 284 285 288 289 286 283 282 281 281 280 280 279 279 277 276 275 273 272 270 268 266 265 265 264 261 258 256
298 296 296 297 297 297 298 301 303 304 305 303 300 297 296 296 296 296 297 296 297 298 299 299 299 298 297 295 292 287 279 270 265 263 262 257 254 252 254 255 256 257 259 264 267 268 267 266 266 267 269 271 273 276 279 283 285 285 282 283 285 288 289 286 286 286 285 284 283 282 280 278 277 275 275 274 273 271 270 267 265 263 261 259 257 255
293 292 292 293 295 297 299 302 304 304 302 298 296 295 295 295 295 295 294 294 296 298 300 301 300 297 294 293 294 296 295 289 281 273 268 265 260 256 256 256 255 255 253 256 261 267 271 270 268 268 269 270 271 273 276 280 282 284 283 282 281 280 278 283 288 290 287 283 280 278 277 276 276 276 275 274 272 270 268 266 263 260 258 256 255 254
289 289 291 295 299 303 304 304 303 301 299 297 296 296 296 296 295 294 293 294 295 297 298 301 300 297 294 295 298 301 303 303 299 292 281 274 269 266 263 261 259 257 254 252 254 259 266 270 272 272 272 271 270 270 272 276 279 280 281 281 279 277 273 277 281 283 282 281 279 277 276 277 277 277 276 274 271 268 266 265 263 260 257 254 252 251
288 292 296 301 303 303 302 301 301 299 297 295 295 295 296 295 294 292 291 292 293 295 296 297 295 293 293 297 301 304 305 305 303 301 297 289 283 277 272 268 265 262 258 256 255 256 257 263 269 274 277 274 271 268 267 271 274 277 279 280 280 279 278 278 278 278 278 279 279 278 278 278 278 277 275 273 271 269 266 264 261 259 258 254 251 249
295 299 302 303 301 298 297 298 298 298 296 295 295 295 296 296 294 292 290 291 291 292 293 292 289 288 288 292 296 299 301 302 303 303 303 300 297 292 286 280 274 270 266 263 261 259 258 259 262 266 270 273 273 272 270 270 272 274 277 280 281 281 280 279 279 278 278 277 277 278 279 280 278 276 274 274 273 272 269 265 262 259 257 254 252 250
302 302 301 300 298 297 296 297 298 297 296 296 296 295 295 295 295 294 293 293 293 293 292 291 289 286 286 287 289 292 294 296 298 300 302 302 301 299 296 292 287 282 277 273 269 267 264 261 260 259 261 265 268 272 273 273 272 272 274 277 279 280 279 279 279 279 278 275 274 273 274 274 274 274 275 276 276 274 272 269 265 262 258 255 252 251
301 299 297 296 296 296 296 297 298 297 296 297 297 296 296 295 295 295 293 294 292 291 289 288 287 287 287 287 288 289 290 290 292 294 297 299 301 301 300 299 297 293 289 283 279 275 271 265 259 255 252 253 258 264 270 271 271 271 272 274 275 276 276 277 278 279 278 276 273 271 268 267 267 269 273 276 276 276 275 273 270 266 262 257 254 252
298 295 294 294 293 294 295 297 297 298 297 298 298 299 299 298 296 293 291 290 288 286 284 284 286 287 288 288 288 289 289 290 290 292 294 297 299 301 301 301 300 299 297 293 289 285 282 275 265 255 247 246 248 254 263 267 269 270 270 270 270 272 274 276 278 279 280 280 278 275 271 269 267 267 269 272 275 277 278 276 274 271 267 262 257 254
297 295 294 293 293 293 295 297 297 297 297 298 299 299 300 299 297 294 291 288 286 284 283 282 282 283 285 287 288 288 288 289 290 291 293 296 298 299 298 299 299 299 299 297 296 295 293 291 285 275 261 251 247 248 255 263 268 271 271 270 270 272 274 276 278 280 281 282 282 280 277 274 271 269 268 270 274 277 279 279 278 276 273 270 265 261